DW3263 Weather Reports


time (UTC)temp
C
wind
direction
speed
KPH
gust
KPH
rain 1hr
cm
rain 24hr
cm
rain mn
cm
humidity
%
barometer
mb
20260508004519 15 315 1.6 4.8 0.00 0.10 0.10 44 1007.4
20260508003728 15 315 3.2 8.0 0.00 0.13 0.10 43 1007.3
20260508002519 15 315 3.2 8.0 0.00 0.13 0.10 44 1007.2
20260508001520 15 315 4.8 11.3 0.00 0.13 0.10 42 1007.0
20260508000519 15 315 6.4 12.9 0.00 0.13 0.10 43 1007.0
20260507235519 15 315 3.2 9.7 0.00 0.13 0.10 43 1007.0
20260507234519 16 315 1.6 4.8 0.00 0.13 0.10 41 1006.9
20260507233519 16 315 3.2 4.8 0.00 0.13 0.10 40 1006.8
20260507232520 16 315 3.2 6.4 0.00 0.13 0.10 40 1006.8
20260507231519 16 315 4.8 8.0 0.00 0.13 0.10 39 1006.6
20260507230731 16 315 6.4 12.9 0.00 0.13 0.10 37 1006.5
20260507225518 17 315 3.2 8.0 0.00 0.13 0.10 38 1006.4
20260507224733 17 315 4.8 12.9 0.00 0.13 0.10 37 1006.4
20260507223518 17 315 4.8 12.9 0.00 0.13 0.10 36 1006.3
20260507222519 17 315 6.4 11.3 0.00 0.13 0.10 36 1006.3
20260507221518 17 293 8.0 14.5 0.00 0.13 0.10 36 1006.3
20260507220519 18 293 9.7 19.3 0.00 0.13 0.10 35 1006.2
20260507215519 18 270 3.2 9.7 0.00 0.13 0.10 34 1006.0
20260507214518 17 270 4.8 12.9 0.00 0.13 0.10 37 1006.2
20260507213519 18 338 3.2 8.0 0.00 0.13 0.10 35 1006.2
20260507212519 18 338 4.8 11.3 0.00 0.13 0.10 35 1006.1
20260507211731 17 270 8.0 19.3 0.03 0.13 0.10 36 1006.2
20260507210518 17 270 1.6 6.4 0.03 0.15 0.10 39 1006.2
20260507205519 17 270 6.4 11.3 0.03 0.15 0.10 38 1006.3
20260507204519 18 270 9.7 16.1 0.03 0.15 0.10 35 1006.3
20260507203519 18 315 6.4 11.3 0.03 0.15 0.10 39 1006.4
20260507202519 18 315 6.4 17.7 0.03 0.15 0.10 39 1006.5
20260507201519 18 293 9.7 35.4 0.00 0.13 0.08 37 1006.5
20260507200518 17 293 4.8 11.3 0.00 0.13 0.08 38 1006.6
20260507195519 17 293 4.8 8.0 0.00 0.13 0.08 38 1006.8
20260507194519 17 270 8.0 14.5 0.00 0.13 0.08 37 1006.7
20260507193518 17 315 6.4 16.1 0.00 0.13 0.08 36 1006.9
20260507192519 17 315 4.8 9.7 0.00 0.13 0.08 38 1007.1
20260507191519 17 315 4.8 11.3 0.00 0.13 0.08 38 1007.3
20260507190519 17 315 6.4 17.7 0.00 0.13 0.08 39 1007.3
20260507185519 17 270 9.7 19.3 0.00 0.13 0.08 39 1007.4
20260507184519 17 315 8.0 19.3 0.00 0.13 0.08 41 1007.4
20260507183732 17 23 3.2 12.9 0.00 0.13 0.08 45 1007.5
20260507182519 16 248 3.2 9.7 0.00 0.13 0.08 41 1007.6
20260507181519 16 315 6.4 19.3 0.03 0.13 0.08 39 1007.7
20260507180519 17 248 3.2 8.0 0.03 0.13 0.08 40 1007.9
20260507175519 16 315 4.8 12.9 0.03 0.13 0.08 41 1008.1
20260507174519 16 315 6.4 14.5 0.03 0.13 0.08 40 1008.2
20260507173519 16 315 6.4 14.5 0.03 0.15 0.08 42 1008.3
20260507172519 16 23 4.8 16.1 0.03 0.15 0.08 40 1008.4
20260507171519 16 315 4.8 11.3 0.00 0.13 0.05 40 1008.7
20260507170519 15 338 3.2 9.7 0.00 0.13 0.05 39 1008.8
20260507165519 15 338 9.7 20.9 0.00 0.13 0.05 39 1009.0
20260507164519 15 68 4.8 17.7 0.00 0.13 0.05 42 1009.0
20260507163519 15 293 8.0 16.1 0.00 0.13 0.05 44 1009.2
20260507162729 15 315 4.8 12.9 0.00 0.13 0.05 42 1009.3
20260507161519 15 315 6.4 16.1 0.00 0.13 0.05 43 1009.5
20260507160731 14 338 9.7 17.7 0.00 0.13 0.05 40 1009.6
20260507155519 15 45 6.4 16.1 0.00 0.13 0.05 40 1009.6
20260507154519 14 270 4.8 14.5 0.00 0.13 0.05 43 1009.6
20260507153941 14 315 6.4 22.5 0.00 0.15 0.05 45 1009.7
20260507152519 13 315 9.7 20.9 0.00 0.15 0.05 44 1010.0
20260507151519 13 315 11.3 25.7 0.00 0.15 0.05 43 1010.1
20260507150519 14 0 4.8 17.7 0.00 0.15 0.05 45 1010.3
20260507145519 13 315 6.4 16.1 0.00 0.15 0.05 46 1010.5
20260507144519 13 315 8.0 17.7 0.00 0.15 0.05 45 1010.5
20260507144155 13 45 3.2 12.9 0.00 0.15 0.05 46 1010.8
20260507142519 13 338 3.2 8.0 0.00 0.15 0.05 46 1010.9
20260507141519 12 338 3.2 11.3 0.00 0.18 0.05 49 1010.8
20260507140519 12 338 3.2 14.5 0.00 0.18 0.05 46 1011.0
20260507135519 12 315 4.8 14.5 0.00 0.18 0.05 47 1011.1
20260507134519 12 270 4.8 12.9 0.00 0.18 0.05 50 1011.2
20260507133519 12 315 4.8 12.9 0.00 0.18 0.05 50 1011.3
20260507132519 12 315 4.8 11.3 0.00 0.18 0.05 51 1011.2
20260507131519 12 338 4.8 12.9 0.03 0.18 0.05 51 1011.2
20260507130519 12 338 3.2 6.4 0.03 0.18 0.05 55 1011.2
20260507125519 11 338 1.6 4.8 0.03 0.20 0.05 55 1011.1
20260507125155 11 338 4.8 11.3 0.03 0.20 0.05 53 1011.1
20260507123519 11 293 3.2 8.0 0.03 0.20 0.05 54 1011.4
20260507122519 11 293 4.8 14.5 0.03 0.20 0.05 55 1011.4
20260507121519 11 293 1.6 4.8 0.00 0.18 0.03 55 1011.3
20260507120519 10 293 3.2 9.7 0.00 0.18 0.03 57 1011.3
20260507115519 10 270 4.8 11.3 0.00 0.18 0.03 56 1011.3
20260507114519 10 248 3.2 6.4 0.00 0.18 0.03 57 1011.3
20260507113519 10 248 4.8 11.3 0.00 0.18 0.03 57 1011.0
20260507112519 10 248 3.2 9.7 0.00 0.18 0.03 57 1010.9
20260507111519 10 248 1.6 4.8 0.00 0.18 0.03 59 1010.9
20260507110519 10 248 1.6 6.4 0.00 0.18 0.03 60 1010.7
20260507105519 9 248 1.6 6.4 0.00 0.18 0.03 60 1010.7
20260507104520 9 248 3.2 6.4 0.00 0.18 0.03 58 1010.5
20260507103519 9 248 3.2 8.0 0.00 0.18 0.03 60 1010.4
20260507102519 10 248 3.2 6.4 0.00 0.18 0.03 59 1010.4
20260507101520 9 315 3.2 6.4 0.00 0.18 0.03 59 1010.2
20260507100729 10 315 3.2 6.4 0.00 0.18 0.03 61 1010.1
20260507095519 10 315 3.2 6.4 0.00 0.18 0.03 60 1010.1
20260507094519 10 315 3.2 8.0 0.00 0.18 0.03 59 1010.0
20260507093519 10 315 1.6 4.8 0.00 0.18 0.03 62 1009.9
20260507092519 10 315 4.8 8.0 0.00 0.18 0.03 59 1009.8
20260507091519 10 315 6.4 11.3 0.00 0.18 0.03 60 1009.5
20260507090520 10 315 3.2 8.0 0.00 0.18 0.03 60 1009.5
20260507085519 10 315 3.2 6.4 0.00 0.18 0.03 60 1009.4
20260507084732 10 315 3.2 6.4 0.00 0.18 0.03 60 1009.5
20260507083733 10 315 3.2 8.0 0.00 0.18 0.03 59 1009.6
20260507082729 10 315 4.8 11.3 0.00 0.18 0.03 60 1009.5
20260507081519 10 315 3.2 9.7 0.00 0.18 0.03 59 1009.7
20260507080520 10 315 3.2 8.0 0.00 0.18 0.03 59 1009.6
20260507075520 10 315 1.6 8.0 0.00 0.18 0.03 59 1009.6
20260507074520 10 315 1.6 6.4 0.00 0.18 0.03 58 1009.5
20260507073728 11 315 6.4 17.7 0.03 0.18 0.03 57 1009.7
20260507072520 11 315 3.2 9.7 0.03 0.18 0.03 58 1009.7
20260507071519 11 315 3.2 9.7 0.03 0.18 0.03 58 1009.6
20260507070519 11 315 4.8 9.7 0.03 0.18 0.03 59 1009.8
20260507065519 11 315 3.2 8.0 0.03 0.18 0.03 60 1009.8
20260507064519 11 315 4.8 11.3 0.03 0.18 0.03 61 1009.7
20260507063520 11 315 6.4 12.9 0.00 0.15 0.00 62 1009.5
20260507062519 11 315 4.8 9.7 0.00 0.15 0.00 65 1009.5
20260507061731 11 315 6.4 11.3 0.00 0.15 0.00 59 1009.6
20260507060520 11 315 4.8 9.7 0.00 0.15 0.00 46 1009.6
20260507055519 11 315 6.4 14.5 0.00 0.15 0.00 43 1009.6
20260507054519 11 293 6.4 14.5 0.00 0.15 0.00 45 1009.6
20260507053520 11 315 8.0 14.5 0.00 0.15 0.00 44 1009.6
20260507052519 11 315 3.2 8.0 0.00 0.15 0.00 38 1009.6
20260507051520 12 315 4.8 12.9 0.00 0.15 0.00 45 1009.4
20260507050520 12 315 4.8 11.3 0.00 0.15 0.00 55 1009.6
20260507045520 12 338 6.4 17.7 0.00 0.15 0.00 59 1009.5
20260507044519 12 315 8.0 16.1 0.00 0.15 0.00 59 1009.3
20260507043730 12 315 6.4 11.3 0.00 0.15 0.00 57 1009.6
20260507042731 12 315 4.8 14.5 0.00 0.15 0.00 52 1009.7
20260507041520 12 315 4.8 11.3 0.00 0.15 0.00 46 1009.5
20260507040520 12 315 4.8 9.7 0.00 0.15 0.00 43 1009.6
20260507035729 12 315 6.4 11.3 0.00 0.15 0.15 42 1009.6
20260507034730 12 315 1.6 4.8 0.00 0.15 0.15 38 1009.6
20260507033731 12 315 3.2 9.7 0.00 0.15 0.15 39 1009.4
20260507032519 13 315 3.2 9.7 0.00 0.15 0.15 42 1009.3
20260507031519 13 315 3.2 8.0 0.00 0.15 0.15 44 1009.1
20260507030519 13 315 3.2 11.3 0.00 0.15 0.15 45 1008.9
20260507025943 13 315 4.8 9.7 0.00 0.15 0.15 46 1009.1
20260507024731 13 315 8.0 14.5 0.00 0.15 0.15 46 1008.8
20260507023519 13 315 4.8 14.5 0.00 0.15 0.15 36 1009.3
20260507022519 13 315 1.6 8.0 0.00 0.15 0.15 27 1009.3
20260507021519 13 315 1.6 6.4 0.00 0.15 0.15 29 1009.1
20260507020519 13 315 4.8 9.7 0.00 0.15 0.15 32 1008.8
20260507015519 13 315 3.2 9.7 0.00 0.15 0.15 29 1008.9
20260507014519 14 315 4.8 9.7 0.00 0.15 0.15 30 1009.2
20260507013519 14 315 6.4 17.7 0.03 0.15 0.15 34 1009.1
20260507012519 14 315 6.4 12.9 0.03 0.15 0.15 32 1009.2
20260507011519 14 315 8.0 19.3 0.03 0.15 0.15 32 1009.2
20260507010519 15 293 6.4 12.9 0.03 0.15 0.15 32 1009.0
20260507005519 15 293 1.6 4.8 0.03 0.15 0.15 31 1008.9